This demonstration page uses our WeatherBlox Daily Observations layout. Learn more.

Left ArrowRight Arrow

Hourly Observations for June 10, 2015

Temp ( °F °C ) Dew Point ( °F °C ) Humidity (%) Winds ( mph kmh ) Pressure ( in mb ) Visibility ( mi km ) Precip ( " mm )
12:54 am 00:54 Clear 82 27.8 64 17.8 55 55 SSW 13 20 29.69 1006 10 16.0934 N/A
1:54 am 01:54 Clear 82 27.8 63 17.2 53 53 SSW 13 20 29.68 1005 10 16.0934 N/A
2:54 am 02:54 Clear 78 25.6 64 17.8 62 62 SSW 8 13 29.69 1005 10 16.0934 N/A
3:54 am 03:54 Clear 75 23.9 65 18.3 71 71 N N/A 29.69 1005 10 16.0934 N/A
4:54 am 04:54 Clear 72 22.2 65 18.3 79 79 SSW 5 7 29.7 1006 10 16.0934 N/A
5:54 am 05:54 Clear 69 20.6 65 18.3 87 87 S 5 7 29.71 1006 10 16.0934 N/A
6:54 am 06:54 Sunny 71 21.7 66 18.9 84 84 S 6 9 29.71 1006 10 16.0934 N/A
7:54 am 07:54 Sunny 76 24.4 66 18.9 72 72 SSW 5 7 29.73 1007 9 14.48406 N/A
8:54 am 08:54 Sunny 81 27.2 66 18.9 61 61 VRB 3 6 29.73 1007 10 16.0934 N/A
9:54 am 09:54 Sunny 85 29.4 66 18.9 53 53 NNW 3 6 29.73 1007 10 16.0934 N/A
10:54 am 10:54 Sunny 87 30.6 66 18.9 50 50 N N/A 29.72 1007 10 16.0934 N/A
11:54 am 11:54 Sunny 88 31.1 69 20.6 54 54 N N/A 29.72 1007 10 16.0934 N/A
12:54 pm 12:54 Sunny 90 32.2 67 19.4 47 47 S 5 7 29.71 1006 10 16.0934 N/A
1:54 pm 13:54 Sunny 94 34.4 68 20 43 43 SE 5 7 29.7 1006 10 16.0934 N/A
2:54 pm 14:54 Sunny 96 35.6 68 20 40 40 S 9 15 29.67 1005 10 16.0934 N/A
3:54 pm 15:54 Mostly Sunny 98 36.7 62 16.7 31 31 SW 14 22 29.65 1004 10 16.0934 N/A
4:54 pm 16:54 Sunny 93 33.9 63 17.2 37 37 SSW 6 9 29.63 1003 10 16.0934 N/A
5:54 pm 17:54 Partly Cloudy 94 34.4 64 17.8 37 37 S 10 17 29.62 1003 10 16.0934 N/A
6:47 pm 18:47 Cloudy with Nearby Thunderstorms 87 30.6 67 19.4 51 51 E 14 22 29.59 1002 10 16.0934 N/A
6:54 pm 18:54 Mostly Cloudy with Nearby Thunderstorms 87 30.6 66 18.9 50 50 E 18 30 29.65 1004 10 16.0934 N/A
7:54 pm 19:54 Sunny 85 29.4 65 18.3 51 51 ESE 6 9 29.62 1003 10 16.0934 N/A
8:54 pm 20:54 Sunny 84 28.9 66 18.9 55 55 E 8 13 29.62 1003 10 16.0934 N/A
9:54 pm 21:54 Partly Cloudy 83 28.3 64 17.8 53 53 undefined N/A 29.66 1004 10 16.0934 N/A
10:21 pm 22:21 Windy with Storms Likely 74 23.3 66 18.9 76 76 NW 28 44 29.68 1005 7 11.26538 N/A
10:39 pm 22:39 Cloudy with Heavy Thunderstorms 69 20.6 67 19.4 93 93 NW 28 44 29.74 1007 1.75 2.816345 0.02 0.508
10:50 pm 22:50 Cloudy with Heavy Thunderstorms 70 21 66 19 88 88 NNW 22 35 29.74 1007 0.75 1.207005 0.33 8.382
10:54 pm 22:54 Cloudy with Heavy Thunderstorms 69 20.6 67 19.4 93 93 NW 21 33 29.74 1007 0.75 1.207005 0.52 13.208
11:13 pm 23:13 Cloudy with Thunderstorms 67 19.4 65 18.3 93 93 N 23 37 29.74 1007 2.5 4.02335 0.38 9.652
11:19 pm 23:19 Cloudy with Rain 68 20 65 18.3 90 90 N 25 41 29.74 1007 4 6.43736 0.39 9.906
11:25 pm 23:25 Cloudy with Heavy Thunderstorms 68 20 65 18.3 90 90 NW 18 30 29.74 1007 2.5 4.02335 0.42 10.668
11:29 pm 23:29 Cloudy with Heavy Thunderstorms 68 20 65 18.3 90 90 N 21 33 29.74 1007 1.75 2.816345 0.48 12.192
11:44 pm 23:44 Cloudy with Thunderstorms 66 19 64 18 94 94 NNE 24 39 29.68 1005 3 4.82802 N/A
11:54 pm 23:54 Cloudy with Nearby Thunderstorms 67 19.4 65 18.3 93 93 NNE 23 37 29.66 1004 5 8.0467 0.66 16.764

Powered by AerisWeather